When you browse on this site, cookies collect data to enhance your experience and personalize the content and advertising you see.
Visit our Privacy Policy to learn more. By continuing to use the site, you agree to this use of cookies and data.
  • în România
  • Lista ţărilor
  • Pe 7 zile
  • Temperatura apei
  • Meteo pe hartă
  • Widget-uri
  • user-avatar
    Intrare

    Meteo pe oră la Klagenfurt

    Astăzi, 17 Februarie, Luni

    Timp Temperatura Precipitaţii Vânt Presiune Umiditate
    00:00 +2°C° 0 mm 2 m/s 693 mmHg 88%
    01:00 +1°C° 0 mm 3 m/s 693 mmHg 90%
    02:00 +2°C° 0 mm 2 m/s 692 mmHg 90%
    03:00 +2°C° 0 mm 2 m/s 692 mmHg 91%
    04:00 +1°C° 0 mm 2 m/s 692 mmHg 91%
    05:00 +1°C° 0 mm 2 m/s 692 mmHg 91%
    06:00 +1°C° 0 mm 2 m/s 692 mmHg 90%
    07:00 +2°C° 0 mm 2 m/s 692 mmHg 91%
    08:00 +3°C° 0 mm 2 m/s 692 mmHg 87%
    09:00 +4°C° 0 mm 2 m/s 692 mmHg 83%
    10:00 +6°C° 0 mm 1 m/s 693 mmHg 79%
    11:00 +6°C° 0 mm 2 m/s 692 mmHg 78%
    12:00 +7°C° 0 mm 2 m/s 692 mmHg 77%
    13:00 +7°C° 0 mm 3 m/s 692 mmHg 76%
    14:00 +7°C° 0 mm 3 m/s 692 mmHg 77%
    15:00 +7°C° 0 mm 2 m/s 691 mmHg 79%
    16:00 +7°C° 0 mm 2 m/s 691 mmHg 80%
    17:00 +6°C° 0 mm 2 m/s 691 mmHg 83%
    18:00 +5°C° 0 mm 2 m/s 691 mmHg 86%
    19:00 +6°C° 0 mm 1 m/s 691 mmHg 89%
    20:00 +5°C° 0 mm 1 m/s 691 mmHg 90%
    21:00 +5°C° 0 mm 1 m/s 691 mmHg 91%
    22:00 +5°C° 0 mm 1 m/s 691 mmHg 92%
    23:00 +5°C° 0 mm 1 m/s 691 mmHg 92%

    Mâine, 18 Februarie, Marţi

    Timp Temperatura Precipitaţii Vânt Presiune Umiditate
    00:00 +4°C° 0 mm 0 m/s 692 mmHg 93%
    01:00 +4°C° 0 mm 0 m/s 692 mmHg 93%
    02:00 +4°C° 0.1 mm 0 m/s 692 mmHg 93%
    03:00 +5°C° 0.1 mm 1 m/s 693 mmHg 93%
    04:00 +5°C° 0.1 mm 1 m/s 693 mmHg 93%
    05:00 +5°C° 0.6 mm 1 m/s 693 mmHg 93%
    06:00 +4°C° 0.6 mm 1 m/s 693 mmHg 93%
    07:00 +4°C° 0.6 mm 1 m/s 694 mmHg 93%
    08:00 +4°C° 0.5 mm 1 m/s 694 mmHg 88%
    09:00 +4°C° 0.5 mm 0 m/s 695 mmHg 84%
    10:00 +4°C° 0.5 mm 0 m/s 695 mmHg 80%
    11:00 +5°C° 0.3 mm 0 m/s 695 mmHg 80%
    12:00 +6°C° 0.3 mm 1 m/s 695 mmHg 79%
    13:00 +6°C° 0.3 mm 1 m/s 695 mmHg 79%
    14:00 +6°C° 0.3 mm 1 m/s 695 mmHg 81%
    15:00 +6°C° 0.3 mm 1 m/s 695 mmHg 84%
    16:00 +5°C° 0.3 mm 1 m/s 694 mmHg 86%
    17:00 +5°C° 0.1 mm 1 m/s 694 mmHg 89%
    18:00 +4°C° 0.1 mm 1 m/s 695 mmHg 91%
    19:00 +4°C° 0.1 mm 1 m/s 695 mmHg 94%
    20:00 +4°C° 0 mm 1 m/s 695 mmHg 93%
    21:00 +4°C° 0 mm 1 m/s 695 mmHg 92%
    22:00 +4°C° 0 mm 1 m/s 695 mmHg 91%
    23:00 +3°C° 0 mm 1 m/s 694 mmHg 91%

    Poimâine, 19 Februarie, Miercuri

    Timp Temperatura Precipitaţii Vânt Presiune Umiditate
    00:00 +3°C° 0 mm 1 m/s 694 mmHg 91%
    01:00 +3°C° 0 mm 1 m/s 694 mmHg 92%
    02:00 +3°C° 0.1 mm 1 m/s 694 mmHg 92%
    03:00 +2°C° 0.1 mm 1 m/s 693 mmHg 93%
    04:00 +2°C° 0.1 mm 1 m/s 692 mmHg 93%
    05:00 +2°C° 0.1 mm 1 m/s 692 mmHg 92%
    06:00 +2°C° 0.1 mm 1 m/s 692 mmHg 92%
    07:00 +2°C° 0.1 mm 1 m/s 692 mmHg 91%
    08:00 +3°C° 0 mm 1 m/s 692 mmHg 84%
    09:00 +3°C° 0 mm 1 m/s 692 mmHg 77%
    10:00 +4°C° 0 mm 1 m/s 692 mmHg 71%
    11:00 +5°C° 0 mm 1 m/s 691 mmHg 69%
    12:00 +5°C° 0 mm 1 m/s 691 mmHg 67%
    13:00 +6°C° 0 mm 1 m/s 690 mmHg 65%
    14:00 +6°C° 0 mm 1 m/s 690 mmHg 65%
    15:00 +6°C° 0 mm 1 m/s 690 mmHg 65%
    16:00 +6°C° 0 mm 1 m/s 690 mmHg 66%
    17:00 +4°C° 0.1 mm 1 m/s 690 mmHg 72%
    18:00 +2°C° 0.1 mm 0 m/s 690 mmHg 78%
    19:00 +1°C° 0.1 mm 0 m/s 691 mmHg 85%
    20:00 +2°C° 0.1 mm 1 m/s 691 mmHg 83%
    21:00 +2°C° 0.1 mm 1 m/s 692 mmHg 82%
    22:00 +1°C° 0.1 mm 1 m/s 692 mmHg 80%
    23:00 +1°C° 0 mm 1 m/s 693 mmHg 78%

    20 Februarie, Joi

    Timp Temperatura Precipitaţii Vânt Presiune Umiditate
    00:00 0°C° 0 mm 1 m/s 693 mmHg 76%
    01:00 0°C° 0 mm 1 m/s 693 mmHg 74%
    02:00 -1°C° 0 mm 0 m/s 693 mmHg 74%
    03:00 -1°C° 0 mm 0 m/s 693 mmHg 73%
    04:00 -1°C° 0 mm 0 m/s 693 mmHg 73%
    05:00 -2°C° 0 mm 0 m/s 693 mmHg 73%
    06:00 -2°C° 0 mm 0 m/s 693 mmHg 73%
    07:00 -2°C° 0 mm 0 m/s 693 mmHg 73%
    08:00 0°C° 0 mm 0 m/s 693 mmHg 68%
    09:00 +2°C° 0 mm 0 m/s 694 mmHg 63%
    10:00 +3°C° 0 mm 0 m/s 694 mmHg 58%
    11:00 +4°C° 0 mm 0 m/s 694 mmHg 55%
    12:00 +6°C° 0 mm 1 m/s 694 mmHg 53%
    13:00 +7°C° 0 mm 1 m/s 694 mmHg 50%
    14:00 +7°C° 0 mm 1 m/s 693 mmHg 53%
    15:00 +6°C° 0 mm 1 m/s 693 mmHg 55%
    16:00 +6°C° 0 mm 1 m/s 692 mmHg 57%
    17:00 +5°C° 0 mm 1 m/s 692 mmHg 64%
    18:00 +3°C° 0 mm 1 m/s 692 mmHg 72%
    19:00 +2°C° 0 mm 1 m/s 692 mmHg 79%
    20:00 +1°C° 0 mm 1 m/s 692 mmHg 80%
    21:00 +1°C° 0 mm 1 m/s 692 mmHg 81%
    22:00 +1°C° 0 mm 1 m/s 692 mmHg 82%
    23:00 +1°C° 0 mm 1 m/s 692 mmHg 83%

    21 Februarie, Vineri

    Timp Temperatura Precipitaţii Vânt Presiune Umiditate
    00:00 +1°C° 0 mm 1 m/s 692 mmHg 83%
    01:00 +1°C° 0 mm 1 m/s 692 mmHg 84%
    02:00 +1°C° 0 mm 1 m/s 692 mmHg 83%
    03:00 +1°C° 0 mm 1 m/s 692 mmHg 83%
    04:00 0°C° 0 mm 0 m/s 692 mmHg 83%
    05:00 0°C° 0 mm 0 m/s 692 mmHg 83%
    06:00 0°C° 0 mm 0 m/s 692 mmHg 82%
    07:00 0°C° 0 mm 0 m/s 693 mmHg 82%
    14:00 +8°C° 0 mm 0 m/s 696 mmHg 54%
    15:00 +9°C° 0 mm 1 m/s 696 mmHg 55%
    16:00 +9°C° 0 mm 1 m/s 696 mmHg 58%
    17:00 +7°C° 0 mm 1 m/s 697 mmHg 64%
    18:00 +6°C° 0 mm 1 m/s 697 mmHg 70%
    19:00 +4°C° 0 mm 1 m/s 697 mmHg 77%
    20:00 +3°C° 0 mm 1 m/s 698 mmHg 79%
    21:00 +3°C° 0 mm 1 m/s 698 mmHg 81%
    22:00 +2°C° 0 mm 0 m/s 698 mmHg 84%
    23:00 +2°C° 0 mm 1 m/s 699 mmHg 84%

    22 Februarie, Sâmbătă

    Timp Temperatura Precipitaţii Vânt Presiune Umiditate
    00:00 +2°C° 0 mm 1 m/s 699 mmHg 85%
    01:00 +2°C° 0 mm 1 m/s 699 mmHg 86%
    02:00 +2°C° 0 mm 1 m/s 699 mmHg 87%
    03:00 +1°C° 0 mm 1 m/s 698 mmHg 88%
    04:00 +1°C° 0 mm 1 m/s 698 mmHg 89%
    05:00 +1°C° 0 mm 1 m/s 698 mmHg 86%
    06:00 0°C° 0 mm 1 m/s 698 mmHg 84%
    07:00 0°C° 0 mm 1 m/s 698 mmHg 81%
    08:00 +2°C° 0 mm 1 m/s 698 mmHg 72%
    09:00 +3°C° 0 mm 0 m/s 699 mmHg 64%
    10:00 +5°C° 0 mm 0 m/s 699 mmHg 55%
    11:00 +6°C° 0 mm 0 m/s 699 mmHg 54%
    12:00 +7°C° 0 mm 0 m/s 699 mmHg 52%
    13:00 +8°C° 0 mm 0 m/s 699 mmHg 50%
    14:00 +8°C° 0 mm 0 m/s 699 mmHg 52%
    15:00 +9°C° 0 mm 1 m/s 698 mmHg 54%
    16:00 +9°C° 0 mm 1 m/s 698 mmHg 55%
    17:00 +7°C° 0 mm 1 m/s 698 mmHg 62%
    18:00 +6°C° 0 mm 1 m/s 698 mmHg 69%
    19:00 +5°C° 0 mm 1 m/s 698 mmHg 75%
    20:00 +4°C° 0 mm 1 m/s 698 mmHg 76%
    21:00 +4°C° 0 mm 1 m/s 698 mmHg 77%
    22:00 +4°C° 0 mm 1 m/s 698 mmHg 77%
    23:00 +4°C° 0 mm 1 m/s 698 mmHg 77%
    Arată mai mult